Radiation Dose at Monitoring Post of Fukushima Daini Nuclear Power Station
Date,Time,MP-1(microSv/h),MP-2(microSv/h),MP-3(microSv/h),MP-4(microSv/h),MP-5(microSv/h),MP-6(microSv/h),MP-7(microSv/h),Wind Direction,Wind Velocity(m/s),Rain
2014/06/03,00:00,0.7,0.5,0.8,0.7,0.6,0.3,0.3,south-southwest,2.7,No
2014/06/03,00:10,0.7,0.5,0.8,0.7,0.6,0.3,0.3,south-southwest,1.9,No
2014/06/03,00:20,0.7,0.5,0.8,0.7,0.6,0.3,0.3,south-southwest,2.4,No
2014/06/03,00:30,0.7,0.5,0.8,0.7,0.6,0.3,0.3,south-southwest,2.2,No
2014/06/03,00:40,0.7,0.5,0.8,0.7,0.6,0.3,0.3,south-southwest,2.2,No
2014/06/03,00:50,0.7,0.5,0.8,0.7,0.6,0.3,0.3,south-southwest,2.5,No
2014/06/03,01:00,0.7,0.5,0.8,0.7,0.6,0.3,0.3,south-southwest,2.7,No
2014/06/03,01:10,0.7,0.5,0.8,0.7,0.6,0.3,0.3,south,1.9,No
2014/06/03,01:20,0.7,0.5,0.8,0.7,0.6,0.3,0.3,south-southwest,1.7,No
2014/06/03,01:30,0.7,0.5,0.8,0.7,0.6,0.3,0.3,south-southwest,1.6,No
2014/06/03,01:40,0.7,0.5,0.8,0.7,0.6,0.3,0.3,south,0.6,No
2014/06/03,01:50,0.7,0.5,0.7,0.7,0.6,0.3,0.3,-,CALM,No
2014/06/03,02:00,0.7,0.5,0.7,0.7,0.6,0.3,0.3,-,CALM,No
2014/06/03,02:10,0.7,0.5,0.8,0.7,0.6,0.3,0.3,-,CALM,No
2014/06/03,02:20,0.7,0.5,0.8,0.7,0.6,0.3,0.3,-,CALM,No
2014/06/03,02:30,0.7,0.5,0.7,0.7,0.6,0.3,0.3,north-northeast,0.7,No
2014/06/03,02:40,0.7,0.5,0.8,0.7,0.6,0.3,0.3,north-northeast,0.7,No
2014/06/03,02:50,0.7,0.5,0.8,0.7,0.6,0.3,0.3,northeast,0.8,No
2014/06/03,03:00,0.7,0.5,0.8,0.7,0.6,0.3,0.3,east-northeast,1.0,No
2014/06/03,03:10,0.7,0.5,0.8,0.7,0.6,0.3,0.3,east-northeast,1.4,No
2014/06/03,03:20,0.7,0.5,0.8,0.7,0.6,0.3,0.3,east-northeast,1.2,No
2014/06/03,03:30,0.7,0.5,0.8,0.7,0.6,0.3,0.3,northeast,1.2,No
2014/06/03,03:40,0.7,0.5,0.8,0.7,0.6,0.3,0.3,east,0.8,No
2014/06/03,03:50,0.7,0.5,0.8,0.7,0.6,0.3,0.3,east-southeast,0.7,No
2014/06/03,04:00,0.7,0.5,0.8,0.7,0.6,0.3,0.3,-,CALM,No
2014/06/03,04:10,0.7,0.5,0.8,0.7,0.6,0.3,0.3,south-southeast,0.6,No
2014/06/03,04:20,0.7,0.5,0.8,0.7,0.6,0.3,0.3,-,CALM,No
2014/06/03,04:30,0.7,0.5,0.8,0.7,0.6,0.3,0.3,-,CALM,No
2014/06/03,04:40,0.7,0.5,0.8,0.7,0.6,0.3,0.3,-,CALM,No
2014/06/03,04:50,0.7,0.5,0.8,0.7,0.6,0.3,0.3,west-southwest,1.0,No
2014/06/03,05:00,0.7,0.5,0.8,0.7,0.6,0.3,0.3,south-southwest,0.8,No
2014/06/03,05:10,0.7,0.5,0.8,0.7,0.6,0.3,0.3,south-southwest,0.8,No
2014/06/03,05:20,0.7,0.5,0.8,0.7,0.6,0.3,0.3,south-southwest,1.1,No
2014/06/03,05:30,0.7,0.5,0.8,0.7,0.6,0.3,0.3,south-southwest,1.6,No
2014/06/03,05:40,0.7,0.5,0.8,0.7,0.6,0.3,0.3,southwest,1.8,No
2014/06/03,05:50,0.7,0.5,0.8,0.7,0.6,0.3,0.3,southwest,1.6,No
2014/06/03,06:00,0.7,0.5,0.8,0.7,0.6,0.3,0.3,southwest,1.4,No
2014/06/03,06:10,0.7,0.5,0.8,0.7,0.6,0.3,0.3,southwest,1.2,No
2014/06/03,06:20,0.7,0.5,0.8,0.7,0.6,0.3,0.3,southwest,1.3,No
2014/06/03,06:30,0.7,0.5,0.8,0.7,0.6,0.3,0.3,southwest,0.8,No
2014/06/03,06:40,0.7,0.5,0.8,0.7,0.6,0.3,0.3,west-southwest,0.7,No
2014/06/03,06:50,0.7,0.5,0.8,0.7,0.6,0.3,0.3,-,CALM,No
2014/06/03,07:00,0.7,0.5,0.8,0.7,0.6,0.3,0.3,west,0.5,No
2014/06/03,07:10,0.7,0.5,0.8,0.7,0.6,0.3,0.3,-,CALM,No
2014/06/03,07:20,0.7,0.5,0.8,0.7,0.6,0.3,0.3,-,CALM,No
2014/06/03,07:30,0.7,0.5,0.8,0.7,0.7,0.3,0.3,-,CALM,No
2014/06/03,07:40,0.7,0.5,0.8,0.7,0.7,0.3,0.3,-,CALM,No
2014/06/03,07:50,0.7,0.5,0.8,0.7,0.6,0.3,0.3,-,CALM,No
2014/06/03,08:00,0.7,0.5,0.8,0.7,0.7,0.3,0.3,-,CALM,No
2014/06/03,08:10,0.7,0.5,0.8,0.7,0.7,0.3,0.3,east-southeast,1.2,No
2014/06/03,08:20,0.7,0.5,0.8,0.7,0.7,0.3,0.3,east,1.4,No
2014/06/03,08:30,0.7,0.5,0.8,0.7,0.7,0.3,0.3,east-northeast,1.9,No
2014/06/03,08:40,0.7,0.5,0.8,0.7,0.7,0.3,0.3,northeast,1.6,No
2014/06/03,08:50,0.7,0.5,0.8,0.7,0.7,0.3,0.3,east-northeast,1.0,No
2014/06/03,09:00,0.7,0.5,0.8,0.7,0.7,0.3,0.3,east,0.8,No
2014/06/03,09:10,0.7,0.5,0.8,0.7,0.7,0.3,0.3,east-northeast,1.0,No
2014/06/03,09:20,0.7,0.5,0.8,0.7,0.7,0.3,0.3,east-northeast,1.6,No
2014/06/03,09:30,0.7,0.5,0.8,0.7,0.7,0.3,0.3,east-northeast,1.5,No
2014/06/03,09:40,-,0.5,0.8,0.7,0.7,0.3,0.3,east,0.9,No
2014/06/03,09:50,-,0.5,0.8,0.7,0.7,0.3,0.3,-,CALM,No
2014/06/03,10:00,-,0.5,0.8,0.7,0.7,0.3,0.3,southeast,1.0,No
2014/06/03,10:10,-,0.5,0.8,0.7,0.7,0.3,0.3,southeast,1.1,No
2014/06/03,10:20,-,0.5,0.8,0.7,0.7,0.3,0.3,southeast,1.4,No
2014/06/03,10:30,-,0.5,0.8,0.7,0.7,0.3,0.3,east,1.6,No
2014/06/03,10:40,-,0.5,0.8,0.7,0.7,0.3,0.3,southeast,0.9,No
2014/06/03,10:50,-,0.5,0.8,0.7,0.7,0.3,0.3,east-southeast,1.4,No
2014/06/03,11:00,-,0.5,0.8,0.7,0.7,0.3,0.3,east-southeast,1.5,No
2014/06/03,11:10,-,0.5,0.8,0.7,0.7,0.3,0.3,southeast,1.2,No
2014/06/03,11:20,-,0.5,0.8,0.7,0.7,0.3,0.3,south-southeast,1.6,No
2014/06/03,11:30,-,0.5,0.8,0.7,0.7,0.3,0.3,south-southeast,1.4,No
2014/06/03,11:40,-,0.5,0.8,0.7,0.7,0.3,0.3,south,2.2,No
2014/06/03,11:50,-,0.5,0.8,0.7,0.7,0.3,0.3,south,2.7,No
2014/06/03,12:00,-,0.5,0.8,0.7,0.7,0.3,0.3,south,3.1,No
2014/06/03,12:10,-,0.5,0.8,0.7,0.7,0.3,0.3,south,3.2,No
2014/06/03,12:20,-,0.5,0.8,0.7,0.7,0.3,0.3,south-southeast,3.3,No
2014/06/03,12:30,-,0.5,0.8,0.7,0.7,0.3,0.3,south-southeast,3.6,No
2014/06/03,12:40,-,0.5,0.8,0.7,0.7,0.3,0.3,south-southeast,3.7,No
2014/06/03,12:50,-,0.5,0.8,0.7,0.7,0.3,0.3,south-southeast,3.3,No
2014/06/03,13:00,-,0.5,0.8,0.7,0.7,0.3,0.3,south-southeast,3.4,No
2014/06/03,13:10,-,0.5,0.8,0.7,0.7,0.3,0.3,south-southeast,3.7,No
2014/06/03,13:20,-,0.5,0.8,0.7,0.7,0.3,0.3,south-southeast,3.3,No
2014/06/03,13:30,-,0.5,0.8,0.7,0.7,0.3,0.3,south,3.0,No
2014/06/03,13:40,-,0.5,0.8,0.7,0.7,0.3,0.3,south,3.3,No
2014/06/03,13:50,-,0.5,0.8,0.7,0.7,0.3,0.3,south-southeast,3.8,No
2014/06/03,14:00,-,0.5,0.8,0.7,0.7,0.3,0.3,south-southeast,3.3,No
2014/06/03,14:10,-,0.5,0.8,0.7,0.7,0.3,0.3,south-southeast,3.3,No
2014/06/03,14:20,-,0.5,0.8,0.7,0.7,0.3,0.3,south-southeast,3.5,No
2014/06/03,14:30,-,0.5,0.8,0.7,0.7,0.3,0.3,south-southeast,3.3,No
2014/06/03,14:40,-,0.5,0.8,0.7,0.7,0.3,0.3,south-southeast,3.6,No
2014/06/03,14:50,-,0.5,0.8,0.7,0.7,0.3,0.3,south,3.6,No
2014/06/03,15:00,-,0.5,0.8,0.7,0.7,0.3,0.3,south,3.9,No
2014/06/03,15:10,-,0.5,0.8,0.7,0.7,0.3,0.3,south,4.9,No
2014/06/03,15:20,-,0.5,0.8,0.7,0.7,0.3,0.3,south,5.0,No
2014/06/03,15:30,-,0.5,0.8,0.7,0.6,0.3,0.3,south,5.6,No
2014/06/03,15:40,-,0.5,0.8,0.7,0.7,0.3,0.3,south,5.8,No
2014/06/03,15:50,-,0.5,0.8,0.7,0.6,0.3,0.3,south,6.7,No
2014/06/03,16:00,-,0.5,0.8,0.7,0.7,0.3,0.3,south,7.5,No
2014/06/03,16:10,0.7,0.5,0.8,0.7,0.7,0.3,0.3,south,7.8,No
2014/06/03,16:20,0.7,0.5,0.8,0.7,0.7,0.3,0.3,south,8.3,No
2014/06/03,16:30,0.7,0.5,0.8,0.7,0.7,0.3,0.3,south,7.0,No
2014/06/03,16:40,0.7,0.5,0.8,0.7,0.7,0.3,0.3,south,7.0,No
2014/06/03,16:50,0.7,0.5,0.8,0.7,0.6,0.3,0.3,south-southeast,7.7,No
2014/06/03,17:00,0.7,0.5,0.8,0.7,0.6,0.3,0.3,south,8.1,No
2014/06/03,17:10,0.7,0.5,0.8,0.7,0.7,0.3,0.3,south,5.6,No
2014/06/03,17:20,0.7,0.5,0.8,0.7,0.7,0.3,0.3,south,7.3,No
2014/06/03,17:30,0.7,0.5,0.8,0.7,0.6,0.3,0.3,south,9.2,No
2014/06/03,17:40,0.7,0.5,0.8,0.7,0.6,0.3,0.3,south,10.2,No
2014/06/03,17:50,0.7,0.5,0.8,0.7,0.7,0.3,0.3,south,9.1,No
2014/06/03,18:00,0.7,0.5,0.8,0.7,0.6,0.3,0.3,south,8.3,No
2014/06/03,18:10,0.7,0.5,0.8,0.7,0.7,0.3,0.3,south,8.8,No
2014/06/03,18:20,0.7,0.5,0.8,0.7,0.7,0.3,0.3,south,8.9,No
2014/06/03,18:30,0.7,0.5,0.8,0.7,0.7,0.3,0.3,south,8.7,No
2014/06/03,18:40,0.7,0.5,0.8,0.7,0.7,0.3,0.3,south,9.6,No
2014/06/03,18:50,0.7,0.5,0.8,0.7,0.6,0.3,0.3,south,8.9,No
2014/06/03,19:00,0.7,0.5,0.8,0.7,0.7,0.3,0.3,south,8.9,No
2014/06/03,19:10,0.7,0.5,0.8,0.7,0.6,0.3,0.3,south,8.9,No
2014/06/03,19:20,0.7,0.5,0.8,0.7,0.6,0.3,0.3,south,9.5,No
2014/06/03,19:30,0.7,0.5,0.8,0.7,0.7,0.3,0.3,south,9.1,No
2014/06/03,19:40,0.7,0.5,0.8,0.7,0.7,0.3,0.3,south,8.7,No
2014/06/03,19:50,0.7,0.5,0.8,0.7,0.6,0.3,0.3,south,8.5,No
2014/06/03,20:00,0.7,0.5,0.8,0.7,0.6,0.3,0.3,south-southwest,8.0,No
2014/06/03,20:10,0.7,0.5,0.8,0.7,0.6,0.3,0.3,south,8.0,No
2014/06/03,20:20,0.7,0.5,0.8,0.7,0.6,0.3,0.3,south,7.4,No
2014/06/03,20:30,0.7,0.5,0.8,0.7,0.6,0.3,0.3,south,7.5,No
2014/06/03,20:40,0.7,0.5,0.8,0.7,0.6,0.3,0.3,south,7.8,No
2014/06/03,20:50,0.7,0.5,0.8,0.7,0.6,0.3,0.3,south,7.9,No
2014/06/03,21:00,0.7,0.5,0.8,0.7,0.6,0.3,0.3,south-southwest,7.4,No
2014/06/03,21:10,0.7,0.5,0.8,0.7,0.6,0.3,0.3,south,7.8,No
2014/06/03,21:20,0.7,0.5,0.8,0.7,0.6,0.3,0.3,south-southwest,7.4,Yes
2014/06/03,21:30,0.7,0.5,0.8,0.7,0.6,0.3,0.3,south,7.6,No
2014/06/03,21:40,0.7,0.5,0.8,0.7,0.6,0.3,0.3,south,8.1,No
2014/06/03,21:50,0.7,0.5,0.8,0.7,0.6,0.3,0.3,south,7.3,No
2014/06/03,22:00,0.7,0.5,0.8,0.7,0.6,0.3,0.3,south,7.9,No
2014/06/03,22:10,0.7,0.5,0.8,0.7,0.6,0.3,0.3,south,7.3,Yes
2014/06/03,22:20,0.7,0.5,0.8,0.7,0.6,0.3,0.3,south,8.4,No
2014/06/03,22:30,0.7,0.5,0.8,0.7,0.6,0.3,0.3,south,8.1,No
2014/06/03,22:40,0.7,0.5,0.8,0.7,0.6,0.3,0.3,south,8.1,No
2014/06/03,22:50,0.7,0.5,0.8,0.7,0.6,0.3,0.3,south,8.8,No
2014/06/03,23:00,0.7,0.5,0.8,0.7,0.6,0.3,0.3,south-southwest,8.8,No
2014/06/03,23:10,0.7,0.5,0.8,0.7,0.6,0.3,0.3,south,8.7,No
2014/06/03,23:20,0.7,0.5,0.8,0.7,0.6,0.3,0.3,south-southwest,8.6,Yes
2014/06/03,23:30,0.7,0.5,0.8,0.7,0.6,0.3,0.3,south-southwest,8.4,Yes
2014/06/03,23:40,0.7,0.5,0.8,0.7,0.6,0.3,0.3,south-southwest,6.7,No
2014/06/03,23:50,0.7,0.5,0.8,0.7,0.6,0.3,0.3,south-southwest,6.2,No
